Location: Coffee Ditch
(40.9640°N, 122.7500°W)
Time: 08:17:58
(UTC+00:00)

Cosmos 2151 - Pass Details

Date: 08 September 2024
Orbit: 567 x 586 km, 82.5° (Epoch: 05 October)

Event Time Altitude Azimuth Distance (km) Brightness Sun altitude
Rises 12:36:05 0° 360° (N) 2,776 6.7 -13.5°
Reaches altitude 10° 12:38:24 10° 8° (N) 1,874 5.9 -13.1°
Maximum altitude 12:42:16 38° 78° (ENE) 873 4.5 -12.4°
Drops below altitude 10° 12:46:07 10° 147° (SSE) 1,865 5.7 -11.7°
Sets 12:48:24 0° 155° (SSE) 2,760 6.5 -11.3°
